Volver al catálogo

CZ-6A DEB

ActivoSSO
NORAD 54325·DEBRIS·🇨🇳 China

Lanzado Nov 11, 2022 desde Taiyuan Satellite Launch Center

Loading…

Próximos Pases (próximas 24 horas)

TLE

ActualizadoSource: Space-Track

Época: Sep 14, 2026, 06:48 UTC

1 54325U 22151BU  26257.28399873  .00000166  00000-0  11070-3 0  9996
2 54325  98.8106 257.8468 0033911  76.3786 284.1159 14.13457138197438

Sigue CZ-6A DEB en tiempo real con AllMySat

Download on the App Store